This is the latest recevied weather packets stored in our database for station/object KC7UNY-13. If no packets are shown the sender has not sent any weather packets the latest 10 day(s).
| Time | Temp. | Humidity | Pressure | Rain* | Wind** | Luminosity | Snow |
|---|---|---|---|---|---|---|---|
| 1776975341 | 27.78° C | 22% | 1011.7 hPa | 0 mm | - | 461 W/m² | - |
| 1776975038 | 27.78° C | 22% | 1011.7 hPa | 0 mm | - | 374 W/m² | - |
| 1776974736 | 27.78° C | 21% | 1011.7 hPa | 0 mm | - | 503 W/m² | - |
| 1776974432 | 27.78° C | 22% | 1011.7 hPa | 0 mm | - | 455 W/m² | - |
| 1776974129 | 27.22° C | 23% | 1011.9 hPa | 0 mm | - | 393 W/m² | - |
| 1776973827 | 27.22° C | 23% | 1012 hPa | 0 mm | - | 330 W/m² | - |
| 1776973525 | 27.22° C | 24% | 1011.8 hPa | 0 mm | - | 627 W/m² | - |
| 1776973221 | 26.67° C | 23% | 1012.2 hPa | 0 mm | - | 618 W/m² | - |
| 1776972918 | 27.78° C | 23% | 1012 hPa | 0 mm | - | 439 W/m² | - |
| 1776972615 | 26.67° C | 24% | 1012.3 hPa | 0 mm | - | 536 W/m² | - |
| 1776972313 | 26.11° C | 24% | 1012.2 hPa | 0 mm | - | 446 W/m² | - |
| 1776972008 | 26.67° C | 24% | 1012.5 hPa | 0 mm | - | 367 W/m² | - |
| 1776971704 | 27.22° C | 24% | 1012.5 hPa | 0 mm | - | 566 W/m² | - |
| 1776971401 | 27.22° C | 24% | 1012.5 hPa | 0 mm | - | 667 W/m² | - |
| 1776971098 | 26.67° C | 23% | 1012.7 hPa | 0 mm | - | 625 W/m² | - |
| 1776970795 | 27.22° C | 22% | 1012.7 hPa | 0 mm | - | 799 W/m² | - |
| 1776970493 | 26.67° C | 23% | 1012.7 hPa | 0 mm | - | 686 W/m² | - |
| 1776970189 | 26.67° C | 24% | 1012.9 hPa | 0 mm | - | 750 W/m² | - |
| 1776969886 | 26.67° C | 23% | 1012.9 hPa | 0 mm | - | 779 W/m² | - |
| 1776969583 | 26.67° C | 24% | 1013 hPa | 0 mm | - | 706 W/m² | - |
| 1776969279 | 26.67° C | 23% | 1013.4 hPa | 0 mm | - | 674 W/m² | - |
| 1776968976 | 26.67° C | 23% | 1013.3 hPa | 0 mm | - | 670 W/m² | - |
| 1776968674 | 27.22° C | 23% | 1013.4 hPa | 0 mm | - | 626 W/m² | - |
| 1776968371 | 27.22° C | 23% | 1013.3 hPa | 0 mm | - | 687 W/m² | - |
| 1776968067 | 26.67° C | 25% | 1013.4 hPa | 0 mm | - | 693 W/m² | - |
* Rain latest hour (hover to see other rain measurements)
** Current wind speed in m/s (hover to see current wind gust speed)